TimePDT,TemperatureF,Dew PointF,Humidity,Sea Level PressureIn,VisibilityMPH,Wind Direction,Wind SpeedMPH,Gust SpeedMPH,PrecipitationIn,Events,Conditions,WindDirDegrees,DateUTC
12:53 AM,53.1,43.0,69,30.09,10.0,ENE,3.5,-,N/A,,Clear,60,2012-10-27 07:53:00
1:53 AM,51.1,42.1,71,30.08,10.0,East,3.5,-,N/A,,Clear,80,2012-10-27 08:53:00
2:53 AM,52.0,43.0,71,30.07,10.0,Calm,Calm,-,N/A,,Clear,0,2012-10-27 09:53:00
3:53 AM,53.1,42.1,66,30.06,10.0,Calm,Calm,-,N/A,,Clear,0,2012-10-27 10:53:00
4:53 AM,51.1,43.0,74,30.06,10.0,NNE,3.5,-,N/A,,Clear,30,2012-10-27 11:53:00
5:53 AM,48.9,42.1,77,30.07,10.0,East,3.5,-,N/A,,Clear,100,2012-10-27 12:53:00
6:53 AM,50.0,42.1,74,30.07,10.0,Calm,Calm,-,N/A,,Clear,0,2012-10-27 13:53:00
7:53 AM,50.0,42.1,74,30.08,10.0,Calm,Calm,-,N/A,,Clear,0,2012-10-27 14:53:00
8:53 AM,54.0,44.1,69,30.08,10.0,Calm,Calm,-,N/A,,Clear,0,2012-10-27 15:53:00
9:53 AM,62.1,45.0,53,30.07,10.0,Calm,Calm,-,N/A,,Clear,0,2012-10-27 16:53:00
10:53 AM,68.0,48.0,49,30.06,10.0,Calm,Calm,-,N/A,,Clear,0,2012-10-27 17:53:00
11:53 AM,73.9,46.9,38,30.05,10.0,West,3.5,-,N/A,,Clear,260,2012-10-27 18:53:00
12:53 PM,79.0,46.9,32,30.02,10.0,North,6.9,-,N/A,,Clear,350,2012-10-27 19:53:00
1:53 PM,79.0,48.0,34,29.99,10.0,NE,8.1,-,N/A,,Clear,50,2012-10-27 20:53:00
2:53 PM,81.0,48.0,31,29.96,10.0,SW,3.5,-,N/A,,Clear,220,2012-10-27 21:53:00
3:53 PM,80.1,48.0,32,29.95,10.0,Variable,3.5,-,N/A,,Clear,0,2012-10-27 22:53:00
4:53 PM,80.1,46.9,31,29.94,10.0,ENE,8.1,-,N/A,,Clear,60,2012-10-27 23:53:00
5:53 PM,78.1,48.9,36,29.94,10.0,Calm,Calm,-,N/A,,Clear,0,2012-10-28 00:53:00
6:53 PM,73.0,51.1,46,29.95,10.0,Calm,Calm,-,N/A,,Clear,0,2012-10-28 01:53:00
7:53 PM,69.1,51.1,53,29.96,10.0,Calm,Calm,-,N/A,,Clear,0,2012-10-28 02:53:00
9:53 PM,59.0,48.9,69,29.98,10.0,Calm,Calm,-,N/A,,Clear,0,2012-10-28 04:53:00
11:53 PM,59.0,48.9,69,29.98,10.0,Calm,Calm,-,N/A,,Clear,0,2012-10-28 06:53:00